Gallup, NM

9:43 AM MST on February 13, 2016 (GMT -0700)
Gallup Municipal

Weather History for KGUP - May, 2013

Change the Weather History Date:

Wednesday, May 1, 2013

  Actual Average Record
Temperature  
Mean Temperature 59 °F -  
Max Temperature 73 °F 67 °F 80 °F (1992)
Min Temperature 44 °F 29 °F 21 °F (2004)
Degree Days  
Heating Degree Days 6    
Growing Degree Days 9 (Base 50)    
Moisture  
Dew Point 13 °F    
Average Humidity 16    
Maximum Humidity 25    
Minimum Humidity 10    
Precipitation  
Precipitation 0.00 in - - ()
Sea Level Pressure  
Sea Level Pressure 29.72 in    
Wind  
Wind Speed 14 mph (West)    
Max Wind Speed 25 mph    
Max Gust Speed 36 mph    
Visibility 10 miles    
Events      
Averages and records for this station are not official NWS values.
T = Trace of Precipitation, MM = Missing Value Source: NWS Daily Summary

Daily Weather History Graph

Daily Weather History Graph

Search for Another Location

Airport or City:

Trip Planner

Search our weather history database for the weather conditions in past years. The results will help you decide how hot, cold, wet, or windy it might be!

Date:

Astronomy

May. 01, 2013 Rise Set
Actual Time 6:23 AM MDT 8:01 PM MDT
Civil Twilight 5:55 AM MDT 8:29 PM MDT
Nautical Twilight 5:23 AM MDT 9:02 PM MDT
Astronomical Twilight 4:48 AM MDT 9:36 PM MDT
Moon 1:13 AM MDT (5/1) 12:04 PM MDT (5/1)
Length of Visible Light 14h 33m
Length of Day
13h 38m
Waning Gibbous, 58% of the Moon is Illuminated
May 1
Waning Gibbous
May 2
Last Quarter
May 9
New
May 17
First Quarter
May 24
Full

Hourly Weather History & Observations

Time (MDT) Temp. Windchill Dew Point Humidity Pressure Visibility Wind Dir Wind Speed Gust Speed Precip Events Conditions
12:53 AM 59.0 °F - 14.0 °F 17% 29.52 in 10.0 mi WSW 17.3 mph - N/A   Clear
1:53 AM 55.9 °F - 14.0 °F 19% 29.52 in 10.0 mi SW 12.7 mph - N/A   Clear
2:53 AM 54.0 °F - 14.0 °F 21% 29.55 in 10.0 mi SW 11.5 mph - N/A   Clear
3:53 AM 52.0 °F - 14.0 °F 22% 29.57 in 10.0 mi SW 10.4 mph - N/A   Clear
4:53 AM 52.0 °F - 14.0 °F 22% 29.62 in 10.0 mi SW 4.6 mph - N/A   Clear
5:53 AM 50.0 °F - 14.0 °F 24% 29.66 in 10.0 mi SW 12.7 mph - N/A   Clear
6:53 AM 51.1 °F - 15.1 °F 24% 29.68 in 10.0 mi SW 4.6 mph - N/A   Mostly Cloudy
7:53 AM 52.0 °F - 17.1 °F 25% 29.74 in 10.0 mi Calm Calm - N/A   Partly Cloudy
8:53 AM 60.1 °F - 16.0 °F 18% 29.70 in 10.0 mi WSW 13.8 mph - N/A   Partly Cloudy
9:53 AM 64.0 °F - 16.0 °F 16% 29.68 in 10.0 mi WSW 16.1 mph 21.9 mph N/A   Clear
10:53 AM 66.9 °F - 19.0 °F 16% 29.68 in 10.0 mi West 15.0 mph 25.3 mph N/A   Clear
11:53 AM 70.0 °F - 21.0 °F 16% 29.67 in 10.0 mi WSW 17.3 mph 27.6 mph N/A   Clear
12:53 PM 70.0 °F - 23.0 °F 17% 29.68 in 10.0 mi WNW 18.4 mph 31.1 mph N/A   Clear
1:53 PM 72.0 °F - 21.9 °F 15% 29.68 in 10.0 mi WSW 16.1 mph 28.8 mph N/A   Clear
2:53 PM 73.0 °F - 21.9 °F 15% 29.69 in 10.0 mi West 19.6 mph 33.4 mph N/A   Clear
3:53 PM 72.0 °F - 21.9 °F 15% 29.71 in 10.0 mi West 16.1 mph 27.6 mph N/A   Mostly Cloudy
4:53 PM 72.0 °F - 19.9 °F 14% 29.71 in 10.0 mi West 24.2 mph 35.7 mph N/A   Scattered Clouds
5:53 PM 70.0 °F - 15.1 °F 12% 29.75 in 10.0 mi WNW 25.3 mph 35.7 mph N/A   Partly Cloudy
6:53 PM 66.9 °F - 10.0 °F 11% 29.78 in 10.0 mi WNW 15.0 mph 25.3 mph N/A   Clear
7:53 PM 61.0 °F - 3.0 °F 10% 29.86 in 10.0 mi NNW 10.4 mph - N/A   Clear
8:53 PM 53.1 °F - -4.0 °F 10% 29.91 in 10.0 mi North 12.7 mph - N/A   Clear
9:53 PM 46.9 °F - -5.1 °F 11% 29.97 in 10.0 mi East 6.9 mph - N/A   Clear
10:53 PM 45.0 °F 39.7 °F -4.0 °F 13% 30.00 in 10.0 mi NE 10.4 mph - N/A   Clear
11:53 PM 44.1 °F 36.2 °F -9.9 °F 10% 30.01 in 10.0 mi NNE 18.4 mph 26.5 mph N/A   Clear